Location: Mohawk View
(42.7837°N, 73.7885°W)
Time: 00:16:15
(UTC+00:00)

Celestis-02/Orion 38 - Pass Details

Date: 17 June 2021
Orbit: 774 x 866 km, 108.0° (Epoch: 02 August)

Event Time Altitude Azimuth Distance (km) Brightness Sun altitude
Exits shadow 02:49:21 31° 156° (SSE) 1,330 5.2 -17.7°
Maximum altitude 02:51:49 85° 242° (WSW) 788 4.5 -17.9°
Drops below altitude 10° 02:56:59 10° 333° (NNW) 2,361 8.3 -18.4°
Sets 02:59:18 0° 334° (NNW) 3,306 9.5 -18.6°
